Torna al catalogo

STARLINK-31179

AttivoComunicazioniVLEO
NORAD 58750·PAYLOAD·🇺🇸 United States

Lanciato Jan 7, 2024 da Cape Canaveral Space Force Station

Loading…

Prossimi Passaggi (prossime 24 ore)

TLE

AggiornatoSource: CelesTrak SupGP

Epoca: Sep 15, 2026, 03:27 UTC

1 58750C 24005Y   26258.14423611 -.00015479  00000+0 -56071-3 0  2588
2 58750  43.0008 230.0321 0001494 265.9987 173.4411 15.27582635    13

Traccia STARLINK-31179 in tempo reale con AllMySat

Download on the App Store